FENGYUN 1C DEB

Satellite information

Favourite Embed

Satellite Type and Status

DEBRISIN ORBIT

Key statistics

Satellite FENGYUN 1C DEB at a glance.

Uptime

9615

Days in orbit

Revolutions

≈ 14.6

Per day

Orbit

SSO

Sun Synchronous Orbit

Inclination

99.0

Latest

Satellite identification and parameters

Extended collection of information and parameters for FENGYUN 1C DEB.

Object identification

Identified? True

Debris? True

Object name: FENGYUN 1C DEB

International designator: 1999-025AJK

Object number (NORAD): 30521

Object ID (CCSDS): 30521

Country: PEOPLES REPUBLIC OF CHINA (PRC)

Current information (Y/N): Y

RCS size: SMALL

Orbital parameters

Period: 98.815 minutes

Inclination: 98.9768 deg

SMA: 7080.133 km

Apoapsis: 799.996 km

Periapsis: 604.0 km

RAAN: 13.5273 deg

Eccentricy: 0.01384127

Argument of periapsis: 188.8346 deg

Mean anomaly: 171.0412 deg

Mean motion: 14.57272088 rev/day

Mean motion (dot): 0.00010187 rev/day2

B* drag term: 0.0019844053 1/REarth

Two-line elements (TLE)

Creation date: Sept. 3, 2025, 10:15 a.m.

Reference frame: TEME

Reference center: EARTH

Epoch: Sept. 3, 2025, 6:46 a.m. UTC

TLE line 0: 0 FENGYUN 1C DEB

TLE line 1: 1 30521U 99025AJK 25246.28230508 .00010187 00000-0 19844-2 0 9998

TLE line 2: 2 30521 98.9768 13.5273 0138413 188.8346 171.0412 14.57272088981186

Live tracking on map

Real-time ground track for satellite FENGYUN 1C DEB.

In-orbit conjunctions

A list of the most updated potential collisions computed for object FENGYUN 1C DEB.

Target Orbit TCA Probability of collision Miss distance Type
CZ-6A DEB LEO 2025-03-01 07:39:50 0.0001204279 378.0 (m) DEBRIS
IDEFIX/ARIANE 42P SSO 2024-12-10 02:16:23 0.0002948096 1000.0 (m) PAYLOAD
FENGYUN 1C DEB SSO 2024-09-24 14:14:30 0.00135987 261.0 (m) DEBRIS

Associated space launch

Chinese polar orbiting meteorological satellite

FENGYUN 1C DEB was lifted into orbit during the mission ‘Long March 4B | Feng Yun 1C’, on board a Long March 4B space rocket.

The launch took place on May 10, 1999, 1:33 a.m. from Launch Complex 7.

For more information about the launch, click the button.

Launch to space Long March 4B | Feng Yun 1C
Long March 4B | Feng Yun 1C

Agency: N/A

Status: Launch Successful

Launch date: May 10, 1999, 1:33 a.m. UTC

Rocket: Long March 4B

Launch pad: Launch Complex 7

Location: Taiyuan Satellite Launch Center, People's Republic of China

...

Latest news about this satellite

There are no fresh news available about this satellite. Check back as we update our databases every day.


Newsletter sign-up

Weekly statistics, charts and insights to help you stay on top of the space industry.